Regional Weather Roundup
Issued by NWS

Home | Current Version | Previous Version | Text Only | Print | Product List | Glossary On
Versions: 1 2 3 4 5 6 7 8 9 10 11 12 13 14 15 16 17 18 19 20 21 22 23 24 25 26 27 28 29 30 31 32 33 34 35 36 37 38 39 40 41 42 43 44 45 46 47 48 49 50
000
ASUS43 KDTX 260910
RWRMI
MICHIGAN HOURLY REGIONAL WEATHER ROUNDUP
NATIONAL WEATHER SERVICE DETROIT/PONTIAC MI
400 AM EST FRI DEC 26 2014

NOTE: "FAIR" INDICATES FEW OR NO CLOUDS BELOW 12,000 FEET WITH NO
SIGNIFICANT WEATHER AND/OR OBSTRUCTION TO VISIBILITY.

MIZ047>049-052>055-059>063-066>070-074>076-081>083-261000-
SOUTHEAST LOWER MICHIGAN

CITY           SKY/WX    TMP DP  RH WIND       PRES   REMARKS
ADRIAN         PTCLDY    30  29  96 SW7       30.15S
ALMA           MOCLDY    33  32  95 S6        30.06F
ANN ARBOR      MOCLDY    32  30  92 S6        30.13S
BAD AXE        MOCLDY    32  31  96 CALM      30.10S
DETROIT CITY   MOCLDY    37  30  75 SW9       30.15F
DETROIT        CLOUDY    32  30  92 S6        30.16S
FLINT          MOCLDY    36  30  79 S7        30.10F
GROSSE ILE     PTCLDY    36  30  80 S6        30.15S
HILLSDALE      MOCLDY    33  32  99 S7        30.10F
HOWELL         CLOUDY    34  32  92 S6        30.10S

CITY           SKY/WX    TMP DP  RH WIND       PRES   REMARKS
JACKSON        CLOUDY    35  31  85 S12       30.10S
LAMBERTVILLE   PTCLDY    32  30  93 S6        30.16F
LANSING        CLOUDY    35  31  85 S10       30.09F
LAPEER         NOT AVBL
MASON          CLOUDY    34  30  86 S5        30.09F
MONROE         PTCLDY    30  30 100 CALM      30.15S
MT. CLEMENS    MOCLDY    34  34  99 SW7       30.13S
PONTIAC        MOCLDY    33  30  88 S5        30.11S
PORT HOPE        N/A     34  29  82 VRB6      30.08R
PORT HURON     MOCLDY    34  32  93 SW6       30.15R
TRI CITIES     MOCLDY    34  30  85 S6        30.08F
YPSILANTI      MOCLDY    36  30  79 S10       30.15S
$$
MIZ043>046-050>051-056>058-064>065-071>073-077>080-261000-
SOUTHWEST LOWER MICHIGAN

CITY           SKY/WX    TMP DP  RH WIND       PRES   REMARKS
BATTLE CREEK   CLOUDY    36  31  82 S10       30.07F
BENTON HARBOR  MOCLDY    36  32  85 S8        30.03F
BIG RAPIDS     MOCLDY    31  31 100 CALM      30.01F FOG
COLDWATER      PTCLDY    35  31  87 MISG      30.09F
HOLLAND        CLOUDY    38  32  79 S9        30.04F
GRAND RAPIDS   CLOUDY    34  30  85 S8        30.05F
KALAMAZOO      MOCLDY    35  31  85 S9        30.07F
MARSHALL       CLOUDY    34  31  89 S6        30.09S
MUSKEGON       CLOUDY    39  35  86 S12       30.02F
$$
MIZ016>042-261000-
NORTHERN LOWER MICHIGAN

CITY           SKY/WX    TMP DP  RH WIND       PRES   REMARKS
ALPENA         MOCLDY    35  30  82 S8        30.03R
BEAVER ISLAND  CLOUDY    34  33  99 CALM      29.96F FOG
BELLAIRE       CLOUDY    38  34  85 CALM      29.99S
CADILLAC       CLOUDY    34  33  94 S7        29.99S
CHARLEVOIX     CLOUDY    39  36  89 S7        30.00S
FRANKFORT      CLOUDY    40  37  87 S10       29.98S
GAYLORD        CLOUDY    34  33  96 S8        29.97F
GRAYLING       CLOUDY    36  33  91 S5        30.00S
HARBOR SPRINGS CLOUDY    38  34  87 SW8       29.97S
HOUGHTON LAKE  CLOUDY    34  31  88 S7        30.02S
MANISTEE       MOCLDY    39  34  81 S3        30.00S
OSCODA         CLOUDY    34  31  90 SW7       30.06S
PELLSTON       CLOUDY    37  34  89 S7        29.98S
TRAVERSE CITY  MOCLDY    38  34  85 S3        29.98S
$$
MIZ007>008-015-261000-
EASTERN UPPER MICHIGAN

CITY           SKY/WX    TMP DP  RH WIND       PRES   REMARKS
KINROSS        CLOUDY    34  32  93 S3        29.96S
MACKINAC ISLAN CLOUDY    34  34 100 CALM      29.97S FOG
NEWBERRY       CLOUDY    31  31 100 SW3       29.95R
S. S. MARIE    CLOUDY    33  31  92 CALM      29.96F
$$
MIZ004>006-011>014-085-261000-
CENTRAL UPPER MICHIGAN

CITY           SKY/WX    TMP DP  RH WIND       PRES   REMARKS
MANISTIQUE     CLOUDY    32  32 100 CALM      29.95S FOG
ESCANABA       CLOUDY    32  28  86 CALM      29.94S
MENOMINEE      MOCLDY    28  27  93 CALM      29.93S
SAWYER-GWINN   CLOUDY    31  30  96 CALM      29.91S FOG
$$
MIZ001>003-009>011-084-261000-
WESTERN UPPER MICHIGAN

CITY           SKY/WX    TMP DP  RH WIND       PRES   REMARKS
IRON MOUNTAIN  CLOUDY    31  29  92 CALM      29.91R FOG
HOUGHTON       CLOUDY    31  29  92 W3        29.91R
COPPER HARBOR    N/A     34  30  85 CALM      29.92R
IRONWOOD       CLOUDY    28  28 100 CALM      29.88S
$$

ABBREVIATIONS USED IN REMARKS
   TC - TEMPERATURE IN CELSIUS
  WCI - WIND CHILL INDEX
   HX - HEAT INDEX
  VSB - VISIBILITY




USA.gov is the U.S. government's official web portal to all federal, state and local government web resources and services.